SWA3828 KSJC-KLAX

Flight info

Callsign SWA3828
Flight time 0h 47m
Altitude 35000
Route SPTNS1 VLREE EBAYE BURGL IRNMN2
Aircraft B737/M-SADE2E3GIJ4RWZ/LB1D1

Departure

Time 2026-04-22 21:49
Airport Norman Y. Mineta San Jose International Airport (KSJC)

Arrival

Time 2026-04-22 22:37
Airport Los Angeles International Airport (KLAX)
Time Latitude Longitude Altitude Speed Heading
2026-04-22 21:34 37.36561 -121.92604 60 ft 0 kts 49°
2026-04-22 21:41 37.36560 -121.92606 60 ft 2 kts 49°
2026-04-22 21:41 37.36543 -121.92631 54 ft 4 kts 54°
2026-04-22 21:41 37.36529 -121.92660 56 ft 4 kts 69°
2026-04-22 21:42 37.36526 -121.92690 53 ft 4 kts 117°
2026-04-22 21:42 37.36532 -121.92701 54 ft 1 kts 139°
2026-04-22 21:42 37.36533 -121.92702 54 ft 0 kts 139°
2026-04-22 21:45 37.36532 -121.92701 54 ft 1 kts 137°
2026-04-22 21:45 37.36526 -121.92694 54 ft 2 kts 143°
2026-04-22 21:45 37.36500 -121.92694 59 ft 6 kts 204°
2026-04-22 21:45 37.36481 -121.92716 58 ft 3 kts 266°
2026-04-22 21:46 37.36496 -121.92752 60 ft 7 kts 308°
2026-04-22 21:46 37.36545 -121.92810 56 ft 12 kts 318°
2026-04-22 21:46 37.36621 -121.92893 59 ft 17 kts 318°
2026-04-22 21:46 37.36723 -121.93004 57 ft 22 kts 316°
2026-04-22 21:47 37.36841 -121.93138 54 ft 21 kts 319°
2026-04-22 21:47 37.36940 -121.93246 60 ft 18 kts 319°
2026-04-22 21:47 37.37034 -121.93350 62 ft 18 kts 317°
2026-04-22 21:47 37.37125 -121.93450 53 ft 17 kts 319°
2026-04-22 21:48 37.37213 -121.93546 62 ft 16 kts 319°
2026-04-22 21:48 37.37264 -121.93636 60 ft 10 kts 256°
2026-04-22 21:48 37.37225 -121.93705 63 ft 7 kts 224°
2026-04-22 21:48 37.37186 -121.93677 63 ft 7 kts 137°
2026-04-22 21:49 37.37150 -121.93636 62 ft 8 kts 139°
2026-04-22 21:49 37.36881 -121.93341 58 ft 101 kts 139°
2026-04-22 21:49 37.36158 -121.92525 238 ft 166 kts 138°
2026-04-22 21:49 37.35256 -121.91416 931 ft 197 kts 139°
2026-04-22 21:50 37.34235 -121.90219 1982 ft 205 kts 138°
2026-04-22 21:50 37.33099 -121.88950 2443 ft 234 kts 144°
2026-04-22 21:50 37.31822 -121.87652 3386 ft 235 kts 143°
2026-04-22 21:50 37.30538 -121.86306 4189 ft 249 kts 141°
2026-04-22 21:51 37.29258 -121.84875 5195 ft 249 kts 140°
2026-04-22 21:51 37.27999 -121.83236 5876 ft 273 kts 131°
2026-04-22 21:51 37.26801 -121.81357 7035 ft 275 kts 129°
2026-04-22 21:52 37.24298 -121.77350 8553 ft 314 kts 129°
2026-04-22 21:52 37.22942 -121.75156 9592 ft 317 kts 128°
2026-04-22 21:52 37.21590 -121.72983 10783 ft 317 kts 128°
2026-04-22 21:52 37.20215 -121.70720 11380 ft 339 kts 128°
2026-04-22 21:53 37.18729 -121.68315 12045 ft 355 kts 129°
2026-04-22 21:53 37.18104 -121.67315 12378 ft 360 kts 129°
2026-04-22 21:53 37.16683 -121.65051 13168 ft 368 kts 129°
2026-04-22 21:54 37.15079 -121.62511 14102 ft 375 kts 130°
2026-04-22 21:54 37.13440 -121.59926 14913 ft 383 kts 130°
2026-04-22 21:54 37.11792 -121.57331 15783 ft 388 kts 131°
2026-04-22 21:54 37.10099 -121.54666 16641 ft 395 kts 131°
2026-04-22 21:55 37.08350 -121.51919 17459 ft 402 kts 132°
2026-04-22 21:55 37.06589 -121.49169 18303 ft 407 kts 135°
2026-04-22 21:55 37.04582 -121.46747 19045 ft 408 kts 143°
2026-04-22 21:55 37.02417 -121.44434 19801 ft 411 kts 145°
2026-04-22 21:56 37.00235 -121.42077 20567 ft 417 kts 144°
2026-04-22 21:56 36.98004 -121.39734 21315 ft 421 kts 146°
2026-04-22 21:56 36.95733 -121.37382 22039 ft 426 kts 146°
2026-04-22 21:56 36.93438 -121.34996 22782 ft 432 kts 146°
2026-04-22 21:57 36.91128 -121.32575 23534 ft 435 kts 146°
2026-04-22 21:57 36.88809 -121.30126 24222 ft 439 kts 146°
2026-04-22 21:57 36.86465 -121.27643 24767 ft 445 kts 146°
2026-04-22 21:57 36.84087 -121.25121 25308 ft 451 kts 146°
2026-04-22 21:58 36.81684 -121.22572 25897 ft 456 kts 147°
2026-04-22 21:58 36.79252 -121.19993 26472 ft 461 kts 147°
2026-04-22 21:58 36.76796 -121.17394 26993 ft 465 kts 147°
2026-04-22 21:58 36.74343 -121.14801 27437 ft 472 kts 147°
2026-04-22 21:59 36.71793 -121.12098 27934 ft 478 kts 148°
2026-04-22 21:59 36.69282 -121.09444 28495 ft 481 kts 148°
2026-04-22 21:59 36.66718 -121.06736 28972 ft 486 kts 148°
2026-04-22 21:59 36.64125 -121.04002 29434 ft 491 kts 148°
2026-04-22 22:00 36.61506 -121.01244 29841 ft 495 kts 149°
2026-04-22 22:00 36.58851 -120.98481 30108 ft 500 kts 149°
2026-04-22 22:00 36.56149 -120.95723 30525 ft 504 kts 150°
2026-04-22 22:00 36.53428 -120.92965 31027 ft 504 kts 150°
2026-04-22 22:01 36.50704 -120.90210 31493 ft 505 kts 150°
2026-04-22 22:01 36.47980 -120.87454 32024 ft 504 kts 150°
2026-04-22 22:01 36.45276 -120.84711 32620 ft 501 kts 151°
2026-04-22 22:01 36.42583 -120.81993 33236 ft 497 kts 151°
2026-04-22 22:02 36.39899 -120.79279 33748 ft 496 kts 151°
2026-04-22 22:02 36.37233 -120.76581 34264 ft 495 kts 152°
2026-04-22 22:02 36.34557 -120.73908 34711 ft 491 kts 152°
2026-04-22 22:02 36.31904 -120.71228 35135 ft 491 kts 151°
2026-04-22 22:03 36.29299 -120.68588 35211 ft 492 kts 151°
2026-04-22 22:03 36.24003 -120.63228 35231 ft 490 kts 151°
2026-04-22 22:04 36.18705 -120.57897 35210 ft 489 kts 152°
2026-04-22 22:04 36.13417 -120.52590 35223 ft 491 kts 150°
2026-04-22 22:05 36.08103 -120.47251 35216 ft 492 kts 151°
2026-04-22 22:05 36.02784 -120.41937 35214 ft 491 kts 151°
2026-04-22 22:06 35.97477 -120.36638 35213 ft 490 kts 151°
2026-04-22 22:06 35.92191 -120.31368 35215 ft 487 kts 151°
2026-04-22 22:07 35.86910 -120.26133 35214 ft 485 kts 153°
2026-04-22 22:07 35.81332 -120.21694 35223 ft 474 kts 160°
2026-04-22 22:08 35.75646 -120.17582 35192 ft 474 kts 160°
2026-04-22 22:08 35.70049 -120.13418 35218 ft 473 kts 159°
2026-04-22 22:09 35.64435 -120.09168 35209 ft 474 kts 159°
2026-04-22 22:09 35.58801 -120.04914 35202 ft 476 kts 159°
2026-04-22 22:10 35.53160 -120.00660 35193 ft 476 kts 159°
2026-04-22 22:10 35.47510 -119.96405 35201 ft 477 kts 159°
2026-04-22 22:11 35.41848 -119.92148 35184 ft 478 kts 159°
2026-04-22 22:11 35.36192 -119.87904 35176 ft 476 kts 159°
2026-04-22 22:12 35.30543 -119.83669 35185 ft 476 kts 159°
2026-04-22 22:12 35.25016 -119.79113 35172 ft 483 kts 152°
2026-04-22 22:13 35.19727 -119.74024 35162 ft 482 kts 150°
2026-04-22 22:13 35.17129 -119.71509 34805 ft 484 kts 151°
2026-04-22 22:13 35.14471 -119.68974 34178 ft 484 kts 151°
2026-04-22 22:13 35.11810 -119.66469 33407 ft 484 kts 151°
2026-04-22 22:14 35.09138 -119.63974 32767 ft 481 kts 151°
2026-04-22 22:14 35.06495 -119.61514 32239 ft 475 kts 151°
2026-04-22 22:14 35.03876 -119.59081 31668 ft 471 kts 151°
2026-04-22 22:14 35.01284 -119.56674 31171 ft 466 kts 151°
2026-04-22 22:15 34.98711 -119.54289 30651 ft 462 kts 151°
2026-04-22 22:15 34.96159 -119.51923 30147 ft 459 kts 151°
2026-04-22 22:15 34.93627 -119.49577 29534 ft 456 kts 151°
2026-04-22 22:15 34.91118 -119.47254 28971 ft 451 kts 151°
2026-04-22 22:16 34.88612 -119.44981 28435 ft 446 kts 152°
2026-04-22 22:16 34.86122 -119.42760 27858 ft 443 kts 152°
2026-04-22 22:16 34.83643 -119.40559 27364 ft 439 kts 152°
2026-04-22 22:16 34.81186 -119.38371 26852 ft 437 kts 152°
2026-04-22 22:17 34.78738 -119.36187 26343 ft 435 kts 152°
2026-04-22 22:17 34.76285 -119.34070 25828 ft 431 kts 153°
2026-04-22 22:17 34.73887 -119.31942 25330 ft 433 kts 150°
2026-04-22 22:17 34.71481 -119.29757 24812 ft 431 kts 152°
2026-04-22 22:18 34.69056 -119.27627 24281 ft 429 kts 152°
2026-04-22 22:18 34.66639 -119.25528 23777 ft 426 kts 152°
2026-04-22 22:18 34.64234 -119.23446 23187 ft 422 kts 153°
2026-04-22 22:18 34.61850 -119.21391 22645 ft 418 kts 152°
2026-04-22 22:19 34.59488 -119.19349 22155 ft 413 kts 153°
2026-04-22 22:19 34.57146 -119.17360 21636 ft 409 kts 152°
2026-04-22 22:19 34.54844 -119.15359 21155 ft 405 kts 152°
2026-04-22 22:19 34.52582 -119.13353 20690 ft 402 kts 150°
2026-04-22 22:20 34.50346 -119.11338 20219 ft 399 kts 150°
2026-04-22 22:20 34.48130 -119.09339 19736 ft 397 kts 149°
2026-04-22 22:20 34.45927 -119.07347 19254 ft 392 kts 151°
2026-04-22 22:20 34.43724 -119.05447 18829 ft 387 kts 152°
2026-04-22 22:21 34.41533 -119.03564 18326 ft 386 kts 152°
2026-04-22 22:21 34.39349 -119.01700 17845 ft 382 kts 151°
2026-04-22 22:21 34.37188 -118.99826 17252 ft 380 kts 151°
2026-04-22 22:21 34.35054 -118.97978 16775 ft 376 kts 150°
2026-04-22 22:22 34.32945 -118.96124 16322 ft 374 kts 149°
2026-04-22 22:22 34.30905 -118.94262 15837 ft 371 kts 149°
2026-04-22 22:22 34.28861 -118.92393 15412 ft 366 kts 149°
2026-04-22 22:22 34.26837 -118.90555 14988 ft 362 kts 149°
2026-04-22 22:23 34.24835 -118.88735 14555 ft 358 kts 148°
2026-04-22 22:23 34.22861 -118.86921 14135 ft 355 kts 148°
2026-04-22 22:23 34.20904 -118.85119 13674 ft 352 kts 148°
2026-04-22 22:23 34.18963 -118.83336 13227 ft 349 kts 148°
2026-04-22 22:24 34.17042 -118.81571 12795 ft 346 kts 147°
2026-04-22 22:24 34.15181 -118.79749 12364 ft 344 kts 143°
2026-04-22 22:24 34.14006 -118.78482 12099 ft 341 kts 142°
2026-04-22 22:24 34.12270 -118.76557 11648 ft 337 kts 141°
2026-04-22 22:25 34.10561 -118.74652 11313 ft 332 kts 141°
2026-04-22 22:25 34.08870 -118.72787 10910 ft 325 kts 141°
2026-04-22 22:25 34.06673 -118.70386 10426 ft 315 kts 141°
2026-04-22 22:25 34.05595 -118.69222 10166 ft 314 kts 140°
2026-04-22 22:26 34.03595 -118.66761 9897 ft 304 kts 124°
2026-04-22 22:26 34.02943 -118.65225 9447 ft 310 kts 108°
2026-04-22 22:26 34.02533 -118.62692 9066 ft 307 kts 96°
2026-04-22 22:26 34.02309 -118.60135 8653 ft 305 kts 95°
2026-04-22 22:27 34.02103 -118.57604 8278 ft 302 kts 95°
2026-04-22 22:27 34.01888 -118.55101 7950 ft 298 kts 95°
2026-04-22 22:27 34.01669 -118.52652 7693 ft 291 kts 95°
2026-04-22 22:27 34.01449 -118.50291 7451 ft 284 kts 96°
2026-04-22 22:28 34.01225 -118.47912 7201 ft 279 kts 95°
2026-04-22 22:28 34.01046 -118.45638 6977 ft 273 kts 88°
2026-04-22 22:28 34.01339 -118.43394 6770 ft 264 kts 75°
2026-04-22 22:28 34.01746 -118.41255 6543 ft 260 kts 75°
2026-04-22 22:29 34.02125 -118.39169 6327 ft 256 kts 76°
2026-04-22 22:29 34.02496 -118.37063 6103 ft 251 kts 75°
2026-04-22 22:29 34.02825 -118.35058 6004 ft 242 kts 80°
2026-04-22 22:29 34.03035 -118.33088 5988 ft 235 kts 83°
2026-04-22 22:30 34.03222 -118.31144 6001 ft 232 kts 82°
2026-04-22 22:30 34.03417 -118.29219 5943 ft 233 kts 81°
2026-04-22 22:30 34.03663 -118.27255 5721 ft 238 kts 81°
2026-04-22 22:30 34.03900 -118.25292 5511 ft 235 kts 81°
2026-04-22 22:31 34.04118 -118.23333 5297 ft 231 kts 84°
2026-04-22 22:31 34.03797 -118.21410 4664 ft 243 kts 123°
2026-04-22 22:31 34.02536 -118.20151 4217 ft 235 kts 160°
2026-04-22 22:31 34.00985 -118.19948 3877 ft 218 kts 191°
2026-04-22 22:32 33.99639 -118.20598 3557 ft 203 kts 218°
2026-04-22 22:32 33.98702 -118.21771 3259 ft 189 kts 240°
2026-04-22 22:32 33.98153 -118.23140 3008 ft 176 kts 246°
2026-04-22 22:32 33.97653 -118.24463 2756 ft 171 kts 245°
2026-04-22 22:33 33.97170 -118.25744 2527 ft 165 kts 246°
2026-04-22 22:33 33.96702 -118.26985 2274 ft 160 kts 246°
2026-04-22 22:33 33.96411 -118.28240 2098 ft 153 kts 263°
2026-04-22 22:33 33.96300 -118.29472 2017 ft 146 kts 262°
2026-04-22 22:34 33.96185 -118.30619 2041 ft 133 kts 262°
2026-04-22 22:34 33.96097 -118.31483 2001 ft 132 kts 262°
2026-04-22 22:34 33.96064 -118.31809 2010 ft 130 kts 262°
2026-04-22 22:34 33.95964 -118.32843 1998 ft 119 kts 262°
2026-04-22 22:35 33.95867 -118.33831 1834 ft 125 kts 262°
2026-04-22 22:35 33.95824 -118.34256 1647 ft 130 kts 261°
2026-04-22 22:35 33.95791 -118.34563 1509 ft 132 kts 260°
2026-04-22 22:35 33.95679 -118.35654 1074 ft 130 kts 261°
2026-04-22 22:36 33.95565 -118.36743 669 ft 127 kts 264°
2026-04-22 22:36 33.95461 -118.37760 517 ft 121 kts 264°
2026-04-22 22:36 33.95350 -118.38776 363 ft 129 kts 261°
2026-04-22 22:36 33.95256 -118.39815 214 ft 117 kts 261°
2026-04-22 22:37 33.95161 -118.40721 99 ft 101 kts 261°
2026-04-22 22:37 33.95088 -118.41413 92 ft 56 kts 264°
2026-04-22 22:37 33.95053 -118.41736 93 ft 32 kts 262°
2026-04-22 22:37 33.95025 -118.41991 92 ft 29 kts 256°
2026-04-22 22:38 33.94946 -118.42186 95 ft 22 kts 228°
2026-04-22 22:38 33.94855 -118.42272 95 ft 12 kts 201°
2026-04-22 22:38 33.94775 -118.42282 95 ft 12 kts 174°
2026-04-22 22:38 33.94727 -118.42274 94 ft 14 kts 167°
2026-04-22 22:39 33.94684 -118.42206 93 ft 16 kts 85°
2026-04-22 22:39 33.94700 -118.42060 92 ft 19 kts 83°
2026-04-22 22:39 33.94717 -118.41892 93 ft 22 kts 82°
2026-04-22 22:40 33.94736 -118.41702 92 ft 24 kts 82°
2026-04-22 22:40 33.94757 -118.41496 93 ft 26 kts 83°
2026-04-22 22:40 33.94792 -118.41280 93 ft 26 kts 83°
2026-04-22 22:40 33.94803 -118.41182 95 ft 25 kts 83°
2026-04-22 22:41 33.94812 -118.41098 94 ft 25 kts 83°
2026-04-22 22:41 33.94832 -118.40902 96 ft 23 kts 82°
2026-04-22 22:41 33.94851 -118.40714 93 ft 22 kts 83°
2026-04-22 22:42 33.94858 -118.40645 93 ft 22 kts 82°
2026-04-22 22:42 33.94865 -118.40585 94 ft 22 kts 82°
2026-04-22 22:42 33.94873 -118.40499 93 ft 22 kts 84°
2026-04-22 22:42 33.94887 -118.40363 93 ft 16 kts 84°
2026-04-22 22:43 33.94845 -118.40281 94 ft 11 kts 141°
2026-04-22 22:43 33.94830 -118.40196 92 ft 11 kts 83°
2026-04-22 22:43 33.94834 -118.40157 93 ft 2 kts 83°
2026-04-22 22:43 33.94836 -118.40140 92 ft 2 kts 83°
2026-04-22 22:44 33.94835 -118.40124 92 ft 2 kts 103°
2026-04-22 22:44 33.94822 -118.40121 93 ft 2 kts 184°
2026-04-22 22:44 33.94807 -118.40123 92 ft 2 kts 185°
2026-04-22 22:44 33.94793 -118.40124 94 ft 2 kts 185°
2026-04-22 22:45 33.94791 -118.40125 94 ft 0 kts 185°
2026-04-22 22:45 33.94790 -118.40125 93 ft 0 kts 185°
2026-04-22 22:45 33.94788 -118.40125 92 ft 0 kts 186°